Flag for U.S.A. Weather past 2 weeks in Aliso Viejo, California, U.S.A.

Now
69 °F

Sunny.


Feels Like: 69 °F
Forecast: 55 / 73 °F
Wind: 8 mph from Southwest

Location: John Wayne Airport-Orange County Airport

Current Time: Mar 30, 2015 at 6:03:28 PM

Latest Report: Mar 30, 2015 at 4:53 PM


Visibility: 10 mi

Pressure: 29.95 "Hg

Humidity: 61%

Dew point: 55 °F

Location of Aliso ViejoLocation

Historic Weather in Aliso Viejo — Graph

°F

Aliso Viejo temperature yesterday

Maximum temperature yesterday: 75 °F (at 2:53 PM)
Minimum temperature yesterday: 60 °F (at 2:53 AM)
Average temperature yesterday: 65 °F

Past Weeks' High & Low Weather Summary

 TemperatureHumidityPressure
High87 °F (Mar 26, 11:53 AM)94% (Mar 30, 4:02 AM)30.19 "Hg (Mar 30, 4:02 AM)
Low57 °F (Mar 30, 4:53 AM)14% (Mar 15, 4:53 PM)29.87 "Hg (Mar 16, 5:53 PM)
Average67 °F64%30.03 "Hg
* Reported Mar 15 4:53 PM — Mar 30 4:53 PM, Aliso Viejo, Weather by CustomWeather, © 2015

Note: Actual official high and low records may vary slightly from our data, if they occured in-between our weather recording intervals... More about our weather records

Advertising

Aliso Viejo weather history for previous 24 hours

 ConditionsComfort  
Time TempWeatherWind HumidityBarometerVisibility
4:53 PM
Mon, Mar 30
69 °FSunny.8 mph61%29.95 "Hg10 mi
3:53 PM71 °FSunny.10 mph57%29.96 "Hg10 mi
2:53 PM73 °FSunny.10 mph51%29.97 "Hg10 mi
1:53 PM74 °FSunny.8 mph45%29.99 "Hg10 mi
12:53 PM74 °FSunny.9 mph50%30.01 "Hg9 mi
11:53 AM71 °FPassing clouds.8 mph59%30.02 "Hg8 mi
10:53 AM68 °FPassing clouds.5 mph61%30.03 "Hg9 mi
9:53 AM64 °FPassing clouds.No wind68%30.04 "Hg7 mi
8:53 AM61 °FOvercast.5 mph78%30.03 "Hg6 mi
7:53 AM59 °FLow clouds.No wind84%30.02 "Hg5 mi
6:53 AM59 °FLow clouds.No wind84%30.01 "Hg7 mi
5:53 AM58 °FFog.No wind90%30.00 "Hg6 mi
4:53 AM57 °FFog.No wind93%29.99 "Hg4 mi
4:02 AM57 °FFog.No wind94%29.99 "Hg3 mi
3:53 AM58 °FFog.No wind93%29.98 "Hg2 mi
2:53 AM59 °FLow clouds.No wind90%29.99 "Hg7 mi
1:53 AM60 °FLow clouds.No wind90%30.01 "Hg7 mi
12:53 AM61 °FLow clouds.No wind87%30.02 "Hg9 mi
11:53 PM
Sun, Mar 29
61 °FOvercast.3 mph87%30.02 "Hg9 mi
10:53 PM61 °FPassing clouds.5 mph87%30.02 "Hg8 mi
9:53 PM62 °FClear.5 mph83%30.02 "Hg9 mi
8:53 PM63 °FPassing clouds.5 mph81%30.01 "Hg9 mi
7:53 PM63 °FPassing clouds.8 mph84%29.99 "Hg10 mi
6:53 PM65 °FSunny.9 mph76%29.98 "Hg10 mi
Weather by CustomWeather, © 2015

See weather overviewHow to use our weather pages